Starlink 31460

operational
NORAD ID: 59008 Int'l Des: 2024-036 Owner: SPXS Country: US Constellation: starlink
LEOCIRCULAR

关于 Starlink 31460

正在加载描述...

实时位置

正在加载3D地球...

即将过境

高度历史

Altitude vs Time

uPlot chart will show altitude changes over time

两行轨道根数

1 59008U 24036L 25257.48575740 .00000094 00000-0 15282-4 0 9993
2 59008 53.1610 176.7252 0001016 104.6569 255.4545 15.30192510 88349
Epoch: Sep 14, 2025 • Age: 20 hours

当前状态

高度 476.9 km
速度 7.63 km/s
星下点 -3.54°S, 55.35°E
发射日期 Feb 23, 2024
运行时间 1.5 years
类型 internet

技术详情

分类 Payload
质量 730.00 kg
干质量 700.00 kg
总质量 730.00 kg
长度 0.30 m
直径 4.10 m
跨度 29.00 m
形状 Box + pan
制造商 SPXS
平台类型 Starlink V2M
阶段状态 In Orbit
所有者/国家 SPXS/US

大型星座

Loading constellations...